Weather History for Lamoni, IA

Change the Weather History Date:

Monday, April 29, 2013

  Actual Average Record
Temperature  
Mean Temperature 67 °F 56 °F  
Max Temperature 81 °F 66 °F 88 °F (1987)
Min Temperature 53 °F 45 °F 32 °F (2008)
Degree Days  
Heating Degree Days 0 9  
Month to date heating degree days 519 396  
Since 1 July heating degree days 5880 5885  
Cooling Degree Days 2 0  
Month to date cooling degree days 2 0  
Year to date cooling degree days 2 1  
Growing Degree Days 17 (Base 50)    
Moisture  
Dew Point 55 °F    
Average Humidity 66    
Maximum Humidity 83    
Minimum Humidity 48    
Precipitation  
Precipitation 0.00 in 0.19 in 1.30 in (2006)
Month to date precipitation 7.00 3.52  
Sea Level Pressure  
Sea Level Pressure 29.70 in    
Wind  
Wind Speed 11 mph (South)    
Max Wind Speed 18 mph    
Max Gust Speed 24 mph    
Visibility 10 miles    
Events      
T = Trace of Precipitation, MM = Missing Value Source: NWS Daily Summary

Daily Weather History Graph

Daily Weather History Graph

Search for Another Location

Airport:

Trip Planner

Search our weather history database for the weather conditions in past years. The results will help you decide how hot, cold, wet, or windy it might be!

Date:

Astronomy

Apr. 29, 2013 Rise Set
Actual Time 6:16 AM CDT 8:09 PM CDT
Civil Twilight 5:47 AM CDT 8:39 PM CDT
Nautical Twilight 5:11 AM CDT 9:15 PM CDT
Astronomical Twilight 4:32 AM CDT 9:54 PM CDT
Moon No Moon Rise 9:37 AM CDT (4/29)
Length of Visible Light 14h 52m
Length of Day
13h 53m
Waning Gibbous, 80% of the Moon is Illuminated
Apr 29
Waning Gibbous
May 2
Last Quarter
May 9
New
May 17
First Quarter
May 24
Full

Hourly Weather History & Observations

Time (CDT) Temp. Heat Index Dew Point Humidity Pressure Visibility Wind Dir Wind Speed Gust Speed Precip Events Conditions
12:53 AM 57.0 °F - 50.0 °F 77% 29.81 in 10.0 mi South 9.2 mph - N/A   Clear
1:53 AM 55.0 °F - 48.9 °F 80% 29.80 in 10.0 mi SSE 5.8 mph - N/A   Clear
2:53 AM 55.0 °F - 50.0 °F 83% 29.78 in 10.0 mi SSE 8.1 mph - N/A   Clear
3:53 AM 54.0 °F - 48.9 °F 83% 29.77 in 10.0 mi South 9.2 mph - N/A   Clear
4:53 AM 54.0 °F - 48.9 °F 83% 29.77 in 10.0 mi South 9.2 mph - N/A   Clear
5:53 AM 54.0 °F - 48.9 °F 83% 29.76 in 10.0 mi South 11.5 mph - N/A   Clear
6:53 AM 54.0 °F - 48.9 °F 83% 29.76 in 10.0 mi South 5.8 mph - N/A   Clear
7:53 AM 55.9 °F - 50.0 °F 80% 29.78 in 10.0 mi South 10.4 mph - N/A   Clear
8:53 AM 61.0 °F - 53.1 °F 75% 29.75 in 10.0 mi SSW 11.5 mph - N/A   Clear
9:53 AM 64.9 °F - 54.0 °F 68% 29.74 in 10.0 mi SSW 10.4 mph - N/A   Clear
10:53 AM 69.1 °F - 55.0 °F 61% 29.75 in 10.0 mi West 9.2 mph - N/A   Clear
11:53 AM 71.1 °F - 55.9 °F 59% 29.74 in 10.0 mi SW 9.2 mph - N/A   Clear
12:53 PM 73.0 °F - 57.0 °F 57% 29.71 in 10.0 mi South 4.6 mph - N/A   Clear
1:53 PM 75.9 °F - 57.0 °F 52% 29.68 in 10.0 mi South 10.4 mph - N/A   Clear
2:53 PM 78.1 °F - 57.0 °F 48% 29.66 in 10.0 mi South 10.4 mph - N/A   Clear
3:53 PM 79.0 °F - 57.9 °F 48% 29.63 in 10.0 mi SSW 13.8 mph - N/A   Clear
4:53 PM 80.1 °F 80.9 °F 60.1 °F 50% 29.61 in 10.0 mi SSW 17.3 mph 23.0 mph N/A   Clear
5:53 PM 79.0 °F - 61.0 °F 54% 29.60 in 10.0 mi South 12.7 mph - N/A   Clear
6:53 PM 79.0 °F - 59.0 °F 50% 29.59 in 10.0 mi South 11.5 mph - N/A   Clear
7:53 PM 75.9 °F - 60.1 °F 58% 29.60 in 10.0 mi South 11.5 mph - N/A   Clear
8:53 PM 73.0 °F - 60.1 °F 64% 29.61 in 10.0 mi South 9.2 mph - N/A   Clear
9:53 PM 72.0 °F - 60.1 °F 66% 29.60 in 10.0 mi South 12.7 mph - N/A   Clear
10:53 PM 71.1 °F - 60.1 °F 68% 29.60 in 10.0 mi South 13.8 mph - N/A   Clear
11:53 PM 71.1 °F - 59.0 °F 66% 29.59 in 10.0 mi South 12.7 mph - N/A   Clear